Other Public Products
Issued by NWS Grand Forks, ND

Home | Current Version | Previous Version | Text Only | Print | Product List | Glossary Off
Versions: 1 2 3 4 5 6 7 8 9 10 11 12 13 14 15 16 17 18 19 20 21 22 23 24 25 26 27 28 29 30 31 32 33 34 35 36 37 38 39 40 41 42 43 44 45 46 47 48 49 50

216
FPUS83 KFGF 201631
OPUFGF
PRAIRIE TO PINES WEATHER ROUNDUP
NATIONAL WEATHER SERVICE EASTERN NORTH DAKOTA/GRAND FORKS ND
1000 AM CST FRI JAN 20 2017

 **SATELLITE DATA USED TO AUGMENT SKY COVER AT AUTOMATED STATIONS**
 *****  WEATHER ACROSS EASTERN NORTH DAKOTA  *****

CITY           SKY/WX    TMP DP  RH WIND       PRES   REMARKS
GRAND FORKS    FOG       36  33  89 SE12      29.51R VSB 1
GRAND FORKS AF FOG       34  34 100 SE9       29.51R VSB 1/2
GRAND CITY NWS NOT AVBL
BUXTON           N/A     34  34  99 SE12        N/A
DEVILS LAKE    MIX PCPN  34  34 100 SE8       29.45F FOG
FARGO          CLOUDY   N/A N/A N/A SE9       29.52S FOG
WAHPETON ARPT  CLOUDY    32  32 100 SE9       29.52S WCI  24
$$

 *****  WEATHER ACROSS CENTRAL AND WESTERN NORTH DAKOTA  *****

CITY           SKY/WX    TMP DP  RH WIND       PRES   REMARKS
JAMESTOWN      FOG       33  33 100 SE12      29.43S VSB 3/4 WCI  24
BISMARCK       FOG       24  22  91 W6        29.43R VSB 3/4 WCI  17
MINOT          FAIR      21  17  84 E3        29.39R
MINOT AFB      SUNNY     17  15  90 CALM      29.38S
GARRISON         N/A     15  13  91 CALM      29.39R
WILLISTON      FAIR      15  13  91 SW3       29.39F
DICKINSON      FAIR      25  22  88 W12       29.34F WCI  14
HETTINGER      FAIR      30  26  85 NW12      29.36F WCI  20
$$

 *****  OTHER OBSERVATIONS NORTHEAST NORTH DAKOTA  *****

CITY           SKY/WX    TMP DP  RH WIND       PRES   REMARKS
WALHALLA       NOT AVBL
LANGDON        NOT AVBL
CAVALIER         N/A     34  34 100 S9        29.50S FOG
GRAFTON        FOG       34  34 100 SE8       29.53R VSB 1/4
CANDO          NOT AVBL
FORT TOTTEN      N/A     34  34 100 SE7       29.95S
ROLLA            N/A    N/A N/A N/A MISG        N/A
RUGBY          FOG       28  28 100 S9        29.43R VSB 3/4 WCI  20
 ***** THE ABOVE OBSERVATIONS ARE NON NWS ARE NOT QUALITY
        CONTROLLED AND MAY MIS-REPORT RAIN FOR SNOW...
$$

 *****  OTHER OBSERVATIONS SOUTHEAST NORTH DAKOTA *****

CITY           SKY/WX    TMP DP  RH WIND       PRES   REMARKS
COOPERSTOWN    FOG       34  34 100 SE10      29.48R VSB 1/2
VALLEY CITY    FOG       32  32 100 S9        29.49R VSB 1/2 WCI  24
OAKES          NOT AVBL
GWINNER        CLOUDY    34  34 100 SE15      29.48R WCI  24
SHEYENNE NWR     N/A     34  33  98 SE8       29.95
BUFFALO          N/A     33  32  96 NE9         N/A
WYNDMERE         N/A     34  34 100 SE9         N/A
 ***** THE ABOVE OBSERVATIONS ARE NON NWS ARE NOT QUALITY
       CONTROLLED AND MAY MIS-REPORT RAIN FOR SNOW...
$$

  *****  WEATHER ACROSS NORTHERN MINNESOTA  *****

CITY           SKY/WX    TMP DP  RH WIND       PRES   REMARKS
FLAG ISLAND    CLOUDY    34  34 100 SE9       29.57S FOG
WARROAD        FOG       36  30  80 SE7       29.57S VSB 1
ROSEAU         CLOUDY    36  30  80 SE9       29.56S HAZE
HALLOCK        CLOUDY    36  36 100 SE10      29.51F
THF RVR FALLS  PTSUNNY   36  34  93 SE10      29.54S
HALSTAD          N/A     35  34  97 SE14        N/A
FOSSTON        DRIZZLE   36  34  93 E6        29.54S
BAUDETTE       CLOUDY    35  34  96 SE7       29.57F FOG
WASKISH        CLOUDY    37  36  93 SE10      29.58S FOG
CROOKSTON      CLOUDY    34  34 100 SE10      29.53S FOG
$$
  *****  WEATHER ACROSS CENTRAL AND WEST MINNESOTA  *****

CITY           SKY/WX    TMP DP  RH WIND       PRES   REMARKS
BEMIDJI        CLOUDY    33  33  99 E9        29.56S FOG
PARK RAPIDS    CLOUDY    34  32  92 SE9       29.55S FOG
WADENA         FOG       34  34 100 E9        29.54S VSB 1/2
DETROIT LAKES  CLOUDY    34  34 100 SE10      29.53F FOG
MOORHEAD       CLOUDY    34  34 100 SE7       29.53S FOG
FERGUS FALLS   CLOUDY    34  34 100 SE8       29.56F FOG
ELBOW LAKE     FOG       33  33 100 SE8       29.54R VSB 1
MORRIS MN      FOG       34  34 100 SE12      29.52S VSB 1/4
STAPLES        CLOUDY    34  34 100 SE3       29.56S FOG
WHEATON        CLOUDY    41  41 100 SE10      29.54R FOG
$$
  *****  WEATHER ELSEWHERE ACROSS MINNESOTA  *****

CITY           SKY/WX    TMP DP  RH WIND       PRES   REMARKS
DULUTH         LGT RAIN  35  34  96 E9        29.64F FOG
INTRNTL FALLS  CLOUDY    35  34  96 SE7       29.62R FOG
ELY            FAIR      28  28 100 CALM      29.65F FOG
CLOQUET        RAIN      36  34  93 E7        29.63F VSB 1
BRAINERD       CLOUDY    35  34  96 VRB5      29.57F FOG
HIBBING        CLOUDY    32  32 100 SE7       29.62F FOG
ALEXANDRIA     FOG       33  33 100 SE12      29.54S VSB 1/2 WCI  24
SAINT CLOUD    FOG       34  34 100 SE7       29.58S VSB 1
MINNEAPOLIS    CLOUDY    35  33  92 SE10      29.61F FOG
$$

  *****  WEATHER ACROSS SOUTH DAKOTA  *****

CITY           SKY/WX    TMP DP  RH WIND       PRES   REMARKS
SIOUX FALLS    CLOUDY    39  38  96 SE12      29.50F
BROOKINGS      CLOUDY    36  36 100 SE15      29.47S FOG
WATERTOWN      CLOUDY    36  35  96 SE16      29.45S
HURON          CLOUDY    37  36  96 SE13      29.42F
SISSETON         N/A     34  34 100 S8        29.49S
ABERDEEN       CLOUDY    35  32  88 SE10      29.44S
MITCHELL       CLOUDY    38  37  97 S14       29.44F
PIERRE         FOG       14  12  92 NE3       29.39F VSB 1/4
MOBRIDGE       CLOUDY    25  21  85 CALM      29.37R FOG
RAPID CITY     FAIR      37  29  72 NW10      29.37F
$$

  *****  SOME WEATHER IN NEARBY STATES *****

CITY           SKY/WX    TMP DP  RH WIND       PRES   REMARKS
GLASGOW MT     CLOUDY    30  25  81 W8        29.42R WCI  22
GREAT FALLS MT FAIR      34  24  67 W7        29.44R
CHEYENNE WY    CLOUDY    31  27  85 NW9       29.45F WCI  23
SCOTTSBLUFF NE FAIR      30  25  81 W5        29.44S
OMAHA NE       DRIZZLE   42  38  85 SE7       29.56F FOG
DES MOINES IA  CLOUDY    40  39  97 E3        29.60F FOG
DAVENPORT IA   CLOUDY    38  37  97 SE3       29.65S FOG
CHICAGO IL     CLOUDY    39  37  92 NE9       29.64S FOG
EAU CLAIRE WI  CLOUDY    35  35 100 E7        29.64F FOG
LA CROSSE WI   CLOUDY    38  35  89 SE5       29.64F FOG
$$

  *****  SOME NATIONAL WEATHER *****

CITY           SKY/WX    TMP DP  RH WIND       PRES   REMARKS
LA GUARDIA NY  CLOUDY    43  32  65 NE6       30.03R
RALEIGH NC     CLOUDY    51  49  92 N3        29.93R FOG
ATLANTA GA     PTSUNNY   69  58  67 SW14G21   29.89R
NEW ORLEANS LA PTSUNNY   72  70  93 S6        29.87R
OKLAHOMA CITY  FAIR      50  40  68 SW17G25   29.52R
ALBUQUERQUE NM FAIR      36  30  79 W7        29.75R
SALT LAKE CITY SNOW      32  31  96 SE6       29.59F VSB 1/2
LOS ANGELES CA LGT RAIN  52  51  97 SE13      29.71F FOG
BOISE ID       CLOUDY    36  28  73 E15       29.41F
SEATTLE WA     MOCLDY    47  32  56 E10       29.15F
$$

*** WEATHER ACROSS MANITOBA...SASKATCHEWAN AND ONTARIO ***
                ***ONTARIO***

CITY           SKY/WX    TMP DP  RH WIND       PRES   REMARKS
GERALDTON      FOG       34  34 100 SW5       29.69S VSB 1/8
THUNDER BAY    FOG       32  32 100 E6        29.72S VSB 1/4
SIOUX LOOKOUT  FOG       34  34 100 S7        29.63R VSB 1/8
TORONTO        CLOUDY    37  34  87 E8        29.79F
BIG TROUT LK   FOG       23  21  93 E3        29.61S VSB 1/2
PICKLE LAKE    FOG       34  34 100 SW7       29.61R VSB 3/8
DRYDEN         FOG       34  34 100 SE7       29.61S VSB 0
KENORA         FOG       34  34 100 S9        29.58S VSB 1/8
$$
                *** MANITOBA***

CITY           SKY/WX    TMP DP  RH WIND       PRES   REMARKS
BRANDON        PTSUNNY   14  12  92 VRB2      29.43R
DAUPHIN        PTCLDY    18  16  93 NW6       29.39R FOG     WCI   9
ISLAND LAKE    FOG       23  21  93 S6        29.55R VSB 1/2 WCI  16
PILOT MOUND      N/A     27  27 100 S7          N/A  WCI  19
THE PAS        MOCLDY    27  23  86 E10       29.39F WCI  17
THOMPSON       LGT SNOW  28  27  93 E7        29.53R FOG     WCI  21
WINNIPEG       DRZL/FOG  36  34  93 S12       29.51R VSB 1
LYNN LAKE      CLOUDY    28  28 100 E9        29.46R WCI  20
CHURCHILL      FLURRIES  16  14  93 E16       29.75R WCI   0
GILLAM         SNOW      25  23  93 E5        29.62S VSB 1/4 WCI  19
$$
                ***SASKATCHEWAN***

CITY           SKY/WX    TMP DP  RH WIND       PRES   REMARKS
ESTEVAN        MOCLDY    10   7  85 CALM      29.37S
KINDERSLEY     MOCLDY    25  21  86 NW3       29.34R
LLOYDMINSTER   MOCLDY    21  19  93 W10       29.34R WCI  10
PRINCE ALBERT  MOCLDY    25  23  93 CALM      29.33R
REGINA         PTCLDY    16  14  93 E5        29.36F WCI   9
YORKTON        CLEAR     21  19  93 S5        29.36R WC1F1C2F2C3F3C4F4C5F5C6F6C7F7C8F8C9F9CaFaCbFbCcFcCdFdCe!



USA.gov is the U.S. government's official web portal to all federal, state and local government web resources and services.